Location: Austin
(30.3000°N, 97.7500°W)
Time: 03:50:23
(UTC-05:00)

Cosmos 1269 Rocket - Pass Details

Date: 18 March 2023
Orbit: 772 x 778 km, 74.1° (Epoch: 01 April)

Event Time Altitude Azimuth Distance (km) Brightness Sun altitude
Rises 20:01:12 0° 340° (NNW) 3,257 7.6 -5.2°
Reaches altitude 10° 20:03:36 10° 338° (NNW) 2,326 6.8 -5.7°
Maximum altitude 20:08:50 69° 257° (WSW) 827 4.5 -6.8°
Drops below altitude 10° 20:14:03 10° 174° (S) 2,309 6.4 -7.9°
Sets 20:16:25 0° 172° (S) 3,232 7.1 -8.4°
